Tracking 30970 objects as of 3-Jul-2025
HD Live streaming from Space Station
objects crossing your sky now

ESSA 3 (TOS-A)

Track ESSA 3 (TOS-A) now!
10-day predictions
ESSA 3 (TOS-A) is classified as:


NORAD ID: 2435
Int'l Code: 1966-087A
Perigee: 1,392.8 km
Apogee: 1,493.2 km
Inclination: 101.1 °
Period: 114.6 minutes
Semi major axis: 7814 km
RCS: 0.8135 m2 (medium)
Launch date: October 2, 1966
Source: United States (US)
Launch site: AIR FORCE WESTERN TEST RANGE (AFWTR)
Your satellite tracking list
Your tracking list is empty




NASA's NSSDC Master Catalog

Two Line Element Set (TLE):
1 02435U 66087A   25183.72137144 -.00000037  00000-0  28468-4 0  9992
2 02435 101.0880 102.3444 0064231  16.0038  39.1481 12.56874709695102
Source of the keplerian elements: AFSPC